Regional Weather Roundup
Issued by NWS

Home | Current Version | Previous Version | Text Only | Print | Product List | Glossary On
Versions: 1 2 3 4 5 6 7 8 9 10 11 12 13 14 15 16 17 18 19 20 21 22 23 24 25 26 27 28 29 30 31 32 33 34 35 36 37 38 39 40 41 42 43 44 45 46 47 48 49 50
273
ASUS43 KBIS 031110
RWRND

NORTH DAKOTA REGIONAL WEATHER ROUNDUP
NATIONAL WEATHER SERVICE BISMARCK ND
500 AM CST SAT DEC 03 2016

NOTE: "FAIR" INDICATES FEW OR NO CLOUDS BELOW 12,000 FEET WITH NO
SIGNIFICANT WEATHER AND/OR OBSTRUCTIONS TO VISIBILITY.


NDZ001>003-009>011-017-031200-
NORTHWEST NORTH DAKOTA

CITY           SKY/WX    TMP DP  RH WIND       PRES   REMARKS
WILLISTON      CLEAR     23  18  81 S7        29.88F WCI  15
MINOT          CLEAR     22  20  92 SE7       29.95F WCI  13
MINOT AFB      CLEAR     21  19  91 S13       29.95F WCI   8
$$

NDZ018>021-031>035-040>046-031200-
SOUTHWEST NORTH DAKOTA

CITY           SKY/WX    TMP DP  RH WIND       PRES   REMARKS
BISMARCK       CLEAR     18  17  96 SE9       30.07F WCI   7
DICKINSON      CLEAR     17  14  88 S12       29.91F WCI   4
GARRISON         N/A     25  24  96 S6        29.99F WCI  18
HETTINGER ARPT CLEAR     19  16  88 SE8       29.97  WCI   9
$$

NDZ004>008-012>016-024-026-027-054-031200-
NORTHEAST NORTH DAKOTA

CITY           SKY/WX    TMP DP  RH WIND       PRES   REMARKS
GRAND FORKS    CLOUDY    28  20  71 S15       30.20  WCI  16
GRND FRKS AFB  CLOUDY    26  20  78 S12       30.19F WCI  15
DEVILS LAKE    CLOUDY    26  24  92 S14       30.11F WCI  14
$$

NDZ022-023-025-028>030-036>039-047>053-031200-
SOUTHEAST NORTH DAKOTA

CITY           SKY/WX    TMP DP  RH WIND       PRES   REMARKS
FARGO          CLOUDY    27  18  69 S9        30.24  WCI  18
JAMESTOWN      CLOUDY    26  22  84 S13       30.14F WCI  15
$$





USA.gov is the U.S. government's official web portal to all federal, state and local government web resources and services.